ARIANE 1 DEB, 40778

Orbit data source: Space-Track

ARIANE 1 DEB, 40778 is space debris in HEO originally from a launch on Mon, 24 Dec 1979 UTC launched from the French Guiana (FRGUI). Debris objects in space refer to the collection of defunct objects orbiting the Earth. Examples of debris include non-operational satellites, rocket bodies, and fragments generated from explosions, collisions, or faulty payload assembly.

Loading next visibility...
Identifier
40778, 1979-104AF
Orbit
HEO
Country
Flag of FRFR
Related business
Manufacturer
Unknown
Mission
Spacecraft
Bus & Motor
Unknown
Mass
Unknown
Launch date (UTC)
1979-12-24 (46 years ago)
Launch vehicle
Unknown
Launch site
French Guiana (FRGUI)
Object type
Payload
Rocket body
Debris
Shape & HBR
Unknown shape, 0.1 m
Radar Cross Section
Small (<0.1 m²)

Expand to show TLE details & history
Last TLE update: 4 days ago

TLE from 4 days ago
0 ARIANE 1 DEB
1 40778U 79104AF  26058.49023634  .00000688  00000-0  14215-2 0  9996
2 40778  17.9710 231.0744 4839616 222.4075  56.9757  5.57946107248369
Epoch: 2026-02-27T11:45Z
TLE epoch observation values (Epoch: 2026-02-27T11:45:56.419Z)
Latitude
-7.09088°
Longitude
-125.25306°
Altitude
6,430.883 km
Speed
5.706 km/s
True Right ascension
13h 54m 13s
True Declination
-7° 04' 03"
Sunlit
Object was in daylight at epoch
Visualization orbit readout
Latitude
Unknown
Longitude
Unknown
Altitude
Unknown
Speed
Unknown
Apparent Right ascension
Unknown
Apparent Declination
Unknown
Sunlit
N/A
Visualization observer readout
Local Sidereal Time
19:06:40
Azimuth
Unknown
Elevation
Unknown
Doppler factor
Unknown
Orbital elements
Apogee altitude
13,554.541 km
Perigee altitude
553.327 km
Semi-major axis
13,432.071 km
Eccentricity
0.48396
Inclination
17.971°
RAAN
231.0744°
Arg. of periapsis
222.4075°
True anomaly
114.09022°
Mean anomaly
56.9757°
Eccentric anomaly
84.58072°
Mean motion
1.39421 °/min
Orbital period
258.21 mins
BSTAR
0.0014215
Loading maneuver chart data...
Computing Atmospheric mass density...
Loading historical data...
Loading historical data...
Loading historical data...
Loading historical data...
Loading historical data...
Loading historical data...
Loading historical data...

Documentation

Showing up to 5 results
|